Temp
20 18 18 19 18 19 19 18 18 16 15 14 12 12 10 10 11 9 8 6 8 8 8 8 8 7 7 7 6 6 6 5 5 5 5 5 4 4 4 4 3 3 3 3
19 19 19 20 19 20 19 19 17 16 16 15 14 14 10 10 10 10 7 7 8 7 7 7 7 7 6 6 6 6 6 5 5 5 5 4 4 3 3 3 3 3 3 3
19 20 20 20 17 18 16 18 17 16 16 15 14 12 10 11 12 9 7 8 8 7 6 6 6 6 6 6 6 6 6 6 5 5 5 4 3 3 3 3 4 4 4 3
19 20 20 20 18 17 18 17 17 17 14 14 14 13 10 10 10 9 8 6 7 7 6 6 6 6 6 6 6 6 6 6 5 5 4 3 3 2 3 3 3 4 4 3
19 19 18 19 18 17 18 16 16 16 15 14 14 12 12 9 9 8 8 8 7 6 5 5 6 6 6 6 6 6 6 5 5 5 4 3 4 3 3 3 3 4 4 2
17 18 17 17 17 17 17 16 14 13 12 13 15 14 11 9 10 9 9 8 7 6 6 6 6 7 6 6 6 6 6 5 5 5 4 3 3 3 3 3 3 3 3 2
18 18 17 17 17 17 16 14 15 17 15 16 14 13 12 10 10 9 8 7 7 6 5 5 6 6 6 6 6 6 5 5 5 4 4 4 3 3 3 2 3 3 3 2
18 19 17 17 16 17 16 15 14 21 16 14 13 13 13 10 10 10 8 6 6 6 5 6 6 6 6 6 6 5 5 5 5 4 4 4 4 3 3 3 3 3 3 2
17 19 16 16 15 16 17 15 14 13 12 12 12 12 11 10 10 9 6 6 6 6 5 6 5 5 5 6 5 5 5 5 4 4 4 4 3 3 3 3 3 3 3 2
19 19 16 15 15 16 16 14 16 11 15 17 13 13 13 9 8 8 6 5 6 6 6 5 5 5 5 5 5 5 5 4 4 4 4 4 4 3 3 3 3 3 3 3
18 17 16 15 15 15 14 14 12 11 10 11 13 14 9 10 8 7 6 5 5 5 5 3 4 4 5 5 5 5 4 4 4 4 4 4 4 3 4 3 3 3 3 2
17 14 15 16 14 14 14 16 12 10 13 7 6 11 12 9 8 7 6 5 5 5 4 3 4 4 4 4 4 4 4 4 4 4 4 4 3 3 3 4 3 3 3 2
16 15 15 17 15 13 14 14 11 8 7 9 9 13 8 8 7 7 5 4 4 4 3 2 3 3 3 4 4 4 4 4 4 4 4 4 3 3 3 3 4 3 3 3
14 13 16 16 19 13 14 13 11 11 6 8 9 13 9 8 7 6 5 4 4 4 4 2 2 3 3 3 4 4 4 4 4 4 4 4 3 3 3 4 4 4 3 3
13 15 14 15 14 14 14 13 10 10 11 12 15 11 12 9 7 6 5 4 4 4 4 3 1 2 3 3 3 4 4 4 4 4 4 4 3 3 3 3 4 4 3 3
11 15 16 17 15 14 14 13 11 11 11 10 11 12 11 7 4 4 4 4 4 4 4 3 3 3 3 3 3 3 3 4 3 4 4 4 4 3 3 3 4 4 4 3
11 12 11 16 15 15 14 12 11 10 10 12 13 13 7 8 7 5 4 4 4 4 4 3 3 3 3 3 3 3 3 3 3 3 4 4 4 4 3 3 3 3 3 3
10 11 7 9 14 16 18 14 13 13 12 10 12 9 8 8 7 6 4 4 3 4 4 3 3 3 3 3 3 3 3 3 3 3 4 4 4 4 4 3 3 3 3 3
10 8 6 11 12 15 17 13 12 13 16 14 12 10 8 7 7 7 4 4 4 3 4 4 4 3 3 3 2 3 3 3 3 3 4 4 4 4 3 3 3 2 2 2
9 8 8 5 12 18 19 15 14 16 15 14 11 8 6 6 7 6 3 3 3 5 5 4 3 3 3 2 2 2 2 3 3 3 4 4 4 4 4 3 3 3 3 2
8 4 8 6 8 12 14 13 13 19 17 12 10 8 6 7 7 6 3 3 4 4 4 4 3 3 3 2 2 2 2 2 3 3 4 4 4 4 4 4 4 3 3 3
10 7 6 5 8 15 11 13 16 15 13 12 9 7 7 6 4 3 3 2 3 3 3 3 3 3 2 2 2 2 2 3 3 4 4 4 4 4 4 4 4 4 3 3
13 11 9 10 13 14 11 15 11 11 12 11 9 6 6 4 3 2 3 2 3 3 3 3 3 2 2 2 2 2 2 2 3 4 4 4 4 4 4 4 4 4 3 3
11 10 12 13 16 12 11 12 11 10 11 11 9 6 6 5 3 2 2 2 2 3 3 3 3 2 2 2 2 2 2 2 2 3 4 4 4 4 4 4 4 4 4 3
12 11 12 12 13 12 12 11 12 9 10 9 6 5 6 4 3 3 2 2 2 2 3 3 2 2 2 2 2 2 2 2 2 3 3 3 3 4 4 4 4 4 4 3
10 12 14 16 15 17 17 15 10 10 10 8 7 5 4 5 4 3 2 3 2 2 3 2 2 2 2 2 2 2 1 1 2 2 3 3 3 3 3 3 4 4 4 4
Height
819 835 842 838 839 836 837 842 843 846 847 854 860 860 865 866 867 871 874 877 875 874 874 873 871 870 869 866 864 861 859 856 853 849 845 842 838 834 830 826 822 817 812 806
831 838 833 830 832 833 835 837 847 847 845 852 851 853 863 866 867 868 875 876 875 874 873 872 872 870 869 866 864 861 859 855 852 849 846 842 838 833 829 825 821 816 810 804
834 834 828 831 841 840 846 841 847 851 848 849 851 861 867 865 863 871 874 873 874 872 872 871 870 869 867 865 863 861 858 855 852 849 845 841 837 831 828 823 819 814 808 803
834 829 831 832 841 843 844 844 845 846 856 859 852 863 868 867 867 871 873 875 872 871 871 872 870 868 866 864 862 860 858 855 851 848 844 840 836 832 828 824 819 813 807 801
837 836 837 837 839 840 844 843 845 845 853 858 858 870 857 868 870 871 870 871 871 871 871 870 869 867 866 864 861 859 857 854 850 847 843 840 836 833 829 824 819 813 807 802
839 834 838 838 838 839 841 845 851 858 865 867 853 859 861 870 859 867 867 869 869 870 870 868 867 866 865 863 861 858 856 853 850 847 843 840 836 832 828 823 818 812 807 802
840 840 839 837 840 841 844 856 863 852 863 855 853 861 851 855 856 860 864 868 868 868 867 866 865 864 863 862 860 857 855 852 849 846 843 840 836 832 827 822 817 813 808 802
847 844 843 840 843 842 845 853 866 843 863 865 858 858 846 854 855 856 861 866 866 866 865 865 864 864 863 861 859 857 855 852 849 846 843 839 836 832 827 822 818 814 810 805
847 839 844 843 844 845 843 855 855 868 873 876 863 850 850 854 855 858 865 865 864 863 864 864 864 862 862 860 859 857 855 852 849 846 843 839 836 831 827 824 820 816 812 806
830 840 845 846 845 845 846 852 855 874 867 855 859 855 845 859 857 859 863 864 862 862 863 864 864 864 863 861 859 857 855 852 849 846 842 839 836 832 829 825 820 817 813 807
830 839 848 847 850 849 856 856 863 869 880 885 875 844 842 842 847 854 858 859 859 860 861 862 863 862 862 861 859 858 856 853 849 845 842 839 836 832 829 825 822 818 813 809
831 845 852 845 847 846 846 844 856 881 869 900 909 857 828 836 844 847 853 854 855 858 859 861 861 860 860 860 858 857 855 853 850 846 842 839 836 833 829 826 822 818 814 810
832 844 853 841 850 850 849 846 856 873 887 883 893 842 841 842 846 846 850 853 854 854 857 859 859 859 859 858 858 857 855 853 849 846 843 840 837 833 829 826 822 819 815 812
831 843 840 848 828 842 845 846 852 856 895 881 863 829 840 843 843 846 848 848 851 852 854 856 858 858 857 856 855 855 853 851 849 846 843 840 837 834 831 828 824 820 816 813
835 839 839 832 833 833 833 837 852 858 846 845 824 836 819 829 833 836 840 846 849 850 853 854 856 856 855 854 854 853 852 849 847 845 843 841 838 835 832 828 825 821 818 814
840 834 830 828 828 831 831 832 839 844 840 843 837 825 813 823 831 836 838 841 844 845 848 850 852 853 853 852 853 852 850 849 847 845 843 841 837 834 832 828 825 821 818 814
839 841 849 832 830 831 830 819 825 830 828 823 825 808 820 823 826 829 834 836 837 840 843 845 847 849 849 849 850 849 848 847 846 845 843 839 838 836 832 829 826 821 817 814
842 844 864 863 837 839 794 801 806 806 808 813 805 809 812 813 817 821 824 828 832 835 838 841 844 846 847 847 847 848 846 846 845 845 841 839 838 834 833 829 825 822 818 815
834 850 874 856 850 817 791 801 807 806 789 785 792 802 811 816 819 819 817 820 823 828 832 835 839 842 844 844 845 845 844 845 845 843 841 839 836 834 834 828 824 822 818 815
838 845 857 884 853 821 784 789 791 790 801 772 783 797 809 817 826 815 807 813 820 825 829 833 836 839 841 842 844 843 842 843 842 840 838 838 836 835 832 829 824 822 819 816
853 870 862 873 865 818 787 788 791 796 790 771 778 789 802 807 801 798 803 811 816 821 826 830 833 835 837 840 841 840 840 840 838 839 837 838 836 833 830 827 824 823 820 818
828 852 865 872 864 818 786 790 790 771 766 769 777 784 788 793 798 801 804 810 814 819 823 827 830 832 834 837 838 837 836 836 836 836 834 834 832 830 829 826 825 823 820 818
809 803 817 813 795 771 774 760 763 765 764 768 772 777 783 791 796 800 803 808 812 816 820 823 826 829 831 833 835 834 835 835 834 833 832 831 829 829 828 825 823 821 819 817
793 794 793 789 760 767 767 762 762 762 762 762 764 772 778 783 791 795 800 805 810 813 817 820 823 826 828 830 831 832 834 834 833 832 831 829 829 828 825 822 821 820 817 816
779 784 782 781 763 763 756 753 748 757 759 761 764 767 771 779 788 791 795 800 805 809 813 816 818 820 823 827 829 830 831 831 831 830 829 828 827 825 824 822 820 818 817 814
775 767 769 760 744 743 739 736 741 749 750 755 760 767 770 773 779 787 791 795 800 805 809 812 814 817 818 822 825 827 829 829 830 829 827 826 825 824 822 820 818 817 816 813
Wind_Speed
3 5 1 4 4 4 2 2 2 1 5 5 7 4 9 7 4 6 5 4 3 2 2 6 9 9 10 14 14 15 17 18 19 20 22 22 23 22 20 19 22 26 29 29
5 1 3 2 0 1 2 1 1 1 2 4 3 5 5 6 5 5 7 5 3 1 3 6 8 10 11 12 14 15 17 18 18 19 21 22 20 23 20 21 21 24 27 28
5 1 2 1 4 4 2 1 1 3 0 3 4 3 4 4 2 5 4 3 1 2 4 3 6 10 10 12 14 14 16 17 17 20 21 20 20 22 23 25 26 27 30 30
4 1 1 1 2 1 2 2 1 1 2 2 2 4 4 4 5 3 2 2 1 2 3 3 5 9 10 11 12 12 15 16 17 20 21 18 24 18 23 25 27 28 30 31
1 1 2 2 1 1 2 1 1 1 1 3 0 2 3 5 6 6 4 4 2 3 4 3 4 7 9 9 11 12 15 15 17 19 19 18 21 21 25 26 27 31 31 28
2 1 2 1 1 1 1 2 4 4 3 2 2 3 3 5 6 4 3 5 3 3 3 2 4 6 8 9 11 13 14 15 18 19 17 20 19 23 25 27 27 30 30 28
2 0 1 1 1 1 3 4 3 4 4 4 2 1 7 4 3 6 7 6 5 4 3 1 2 4 5 8 12 14 14 16 17 19 14 20 19 21 22 22 26 26 29 27
3 4 0 2 1 1 1 4 4 3 2 5 4 5 4 4 4 4 5 6 5 4 3 2 1 3 5 9 12 13 13 15 16 18 15 18 18 20 21 21 25 22 25 23
4 2 1 2 1 1 2 2 2 5 2 2 4 5 2 3 4 5 6 6 6 5 4 1 3 4 7 9 12 12 12 14 15 15 14 18 18 19 19 22 22 21 23 24
3 0 2 1 1 2 1 4 2 3 0 4 5 5 5 7 10 7 7 8 6 4 4 3 3 4 6 8 10 10 12 13 14 15 13 17 17 16 19 17 21 21 20 22
2 2 1 2 4 5 1 0 4 4 4 4 2 6 6 9 10 10 9 8 7 6 5 5 3 3 6 8 9 11 12 13 15 14 13 16 16 17 17 17 19 19 19 20
1 4 3 5 1 1 1 2 4 4 4 1 4 6 2 6 9 8 8 8 7 5 6 8 4 2 5 7 8 10 12 13 15 13 14 15 15 16 14 17 15 16 20 20
5 1 2 2 1 3 4 4 4 5 3 6 5 6 1 3 6 7 9 8 7 7 6 7 4 2 2 6 7 9 11 12 13 13 14 15 15 15 13 15 16 15 15 22
3 3 6 6 4 4 4 5 5 5 3 4 7 6 6 8 9 8 7 8 8 7 7 6 5 2 2 4 5 8 10 11 12 12 14 14 15 14 14 16 17 14 13 15
4 4 4 5 6 5 6 5 9 9 5 7 3 7 5 10 13 12 10 7 7 7 7 6 5 4 3 2 4 5 9 9 10 12 13 15 14 14 13 16 18 15 14 13
1 2 0 4 2 5 6 8 10 7 4 10 8 16 5 2 6 8 10 10 8 7 7 7 8 7 5 0 2 3 7 8 9 11 13 15 14 14 14 15 17 16 16 14
6 5 3 4 3 4 9 9 13 7 6 7 7 10 6 4 7 10 11 11 9 8 8 8 11 10 7 4 0 1 4 5 7 11 12 14 14 15 15 15 16 16 16 15
5 5 2 3 3 2 5 3 7 7 5 14 5 5 10 6 5 7 8 12 10 9 8 10 14 11 9 6 2 1 0 3 6 10 12 14 14 14 15 15 16 17 15 15
2 4 2 3 3 8 3 5 7 8 8 18 17 7 7 4 4 5 9 9 11 9 15 19 17 13 9 7 4 3 1 2 6 11 13 13 13 13 16 16 17 17 15 15
5 6 4 3 3 6 5 3 5 4 6 7 11 10 10 7 3 5 11 9 11 19 20 20 17 12 10 8 5 3 1 0 4 9 10 10 10 12 16 14 16 16 15 14
3 3 5 2 3 9 5 6 4 3 7 5 9 10 13 7 5 3 11 9 20 22 21 20 18 14 12 9 6 5 3 2 2 6 7 8 8 8 8 11 13 16 15 15
8 7 4 3 2 9 7 5 9 6 0 5 6 9 14 5 7 7 10 11 18 18 22 21 18 15 12 11 7 7 6 4 1 3 3 5 5 6 7 8 10 12 14 17
4 7 6 10 7 3 11 5 6 4 5 6 7 6 10 9 7 10 9 10 16 21 23 22 18 16 13 13 9 7 5 4 3 1 2 3 3 4 7 8 9 10 12 14
5 5 3 2 5 11 10 12 5 7 6 6 5 8 12 10 10 11 10 9 15 21 23 22 20 17 14 14 10 7 4 4 4 1 0 2 4 5 5 6 8 10 12 14
4 7 6 6 9 5 10 12 12 10 6 6 6 8 13 11 11 11 11 12 17 20 23 24 23 21 18 14 11 8 5 5 6 3 2 2 3 5 6 7 8 8 9 11
5 7 6 7 8 4 7 3 8 11 14 10 10 8 8 13 14 13 10 19 20 21 25 24 24 20 19 16 12 9 7 5 5 4 4 4 4 4 5 8 8 4 7 7
Wind_Direction
34 69 141 192 197 202 199 219 266 242 171 159 211 212 204 202 191 182 153 123 101 71 96 66 48 46 26 20 15 14 10 11 6 4 3 359 354 357 354 348 342 348 345 347
28 124 208 232 77 318 231 305 8 337 135 178 249 261 173 188 210 202 150 151 120 48 72 53 44 32 15 14 12 10 12 11 9 6 5 359 360 359 352 349 355 355 354 353
141 165 176 113 45 39 37 152 181 226 313 265 336 350 141 223 231 97 102 132 136 124 106 62 39 20 16 11 8 7 10 11 11 7 3 5 12 4 10 8 4 1 360 359
93 308 321 208 101 108 296 159 253 264 86 266 112 289 230 206 206 132 145 123 149 88 103 71 26 15 10 6 9 9 8 9 12 10 8 20 14 11 4 4 1 0 3 3
244 10 35 86 129 164 234 215 153 271 158 25 312 76 258 142 225 208 207 187 181 117 131 118 27 8 6 9 10 11 9 14 14 10 10 16 12 14 8 6 4 5 5 6
97 10 65 156 329 142 116 88 46 49 80 6 250 142 242 188 211 165 207 195 152 132 126 91 27 3 11 10 12 15 12 19 15 11 15 9 12 2 358 1 4 8 7 8
352 284 315 56 84 46 77 62 342 352 5 229 193 57 255 205 186 167 194 191 176 148 148 164 10 351 19 12 15 18 18 18 15 13 24 10 13 12 8 13 9 12 7 7
176 309 147 8 82 197 41 125 144 272 289 288 316 246 275 196 190 170 162 171 167 167 180 191 10 22 17 15 16 20 24 17 16 15 20 17 20 15 16 17 18 17 13 13
156 257 318 52 50 107 108 55 180 102 13 18 260 280 297 155 224 184 168 180 191 174 179 163 54 60 30 25 22 22 21 17 19 16 18 21 19 17 12 18 17 20 19 17
203 55 231 137 64 18 75 164 47 19 108 293 287 282 243 218 225 212 191 208 208 185 177 109 109 28 23 25 26 24 21 16 17 15 16 16 18 16 16 10 19 23 19 19
126 115 272 45 201 185 67 98 57 116 132 167 294 271 209 203 194 196 203 208 203 190 187 147 144 42 28 25 23 21 17 15 16 16 16 15 17 15 20 20 25 21 15 16
143 140 200 223 316 331 246 206 144 119 231 100 150 274 274 197 175 174 192 202 204 180 176 157 156 69 45 31 25 22 15 14 14 17 16 17 16 17 24 21 11 14 18 16
170 200 355 299 356 350 238 203 120 111 86 199 140 263 112 138 173 197 181 197 189 178 160 158 167 82 72 27 22 23 17 13 13 16 16 18 16 16 24 19 12 8 10 19
111 161 181 202 206 135 196 192 169 136 125 184 228 283 211 217 212 202 199 194 187 184 177 172 179 177 138 32 26 24 19 14 13 15 16 14 14 18 25 18 16 9 7 13
135 209 188 249 235 197 204 185 180 195 189 181 248 225 228 206 207 203 188 183 180 185 179 185 184 193 181 20 25 24 19 16 16 16 15 12 11 15 15 15 16 14 10 6
133 248 335 285 41 216 265 224 201 213 240 268 275 284 204 98 113 152 182 181 188 188 184 182 180 187 184 151 21 24 20 14 12 18 14 11 13 15 16 13 14 16 14 6
153 146 103 265 342 316 290 222 183 186 206 163 198 227 157 171 181 184 188 190 192 184 178 181 183 192 191 195 342 20 19 18 14 15 17 12 12 15 15 13 11 11 13 16
141 118 100 236 359 308 248 150 191 204 216 215 257 189 187 189 194 189 194 188 193 181 176 181 182 185 190 204 218 204 345 19 18 18 13 13 14 13 17 14 12 11 14 17
97 120 86 140 204 290 260 193 154 174 269 208 221 177 183 106 72 274 199 188 186 174 178 184 186 188 193 200 189 179 202 31 21 9 9 13 11 14 20 17 14 20 20 19
71 73 118 92 151 238 240 177 179 154 293 194 177 166 152 138 158 252 183 165 165 174 176 175 180 184 194 194 186 186 191 72 22 5 3 13 11 19 27 26 22 29 30 31
114 33 168 168 229 286 230 166 158 122 237 161 169 160 156 186 197 179 143 141 166 169 173 175 180 192 196 192 192 196 199 202 349 13 6 17 13 16 22 25 26 31 33 33
165 147 190 95 107 275 148 82 171 212 148 161 159 171 184 145 140 148 155 152 160 163 169 181 183 190 193 195 204 209 211 200 207 23 26 29 16 4 10 8 14 15 14 22
213 187 178 185 211 239 205 197 211 175 162 195 169 174 168 148 170 163 166 163 169 171 174 184 189 189 194 199 209 219 213 206 201 119 45 36 21 11 9 6 5 8 4 4
235 170 208 103 241 229 224 239 250 201 209 189 166 158 167 168 166 167 162 166 174 177 180 188 188 194 197 197 205 221 219 220 229 228 102 351 5 359 7 1 10 7 1 360
190 139 181 263 277 292 252 226 220 211 199 168 152 164 175 153 172 171 170 176 180 183 188 190 194 197 198 198 209 215 220 234 226 248 277 320 346 344 354 355 0 359 6 354
192 184 175 219 221 185 249 235 172 181 200 184 159 152 167 171 168 168 177 179 179 184 192 194 200 204 197 197 204 213 220 238 240 259 280 299 315 335 340 351 348 17 10 5